User: anonymous   Login
Location: ?????????
(38.0736°N, 23.2119°E)
Time: 10:16:32
(UTC+00:00)
Language:

Resurs 01 Rocket - Orbit

View from above orbital plane
View from above orbital plane
View from above satellite
View from above satellite

Ground track
Ground track

The orbit data is extracted from the following two-line orbital elements,

1 23343U 94074B   24164.73946903  .00000809  00000-0  11863-3 0  9996
2 23343  97.7874 207.8523 0007991 120.2736 355.9281 14.78097371593404
Epoch (UTC): 12 June 2024 17:44:50
Eccentricity: 0.0007991
inclination: 97.7874°
perigee height: 630 km
apogee height: 641 km
right ascension of ascending node: 207.8523°
argument of perigee: 120.2736°
revolutions per day: 14.78097371
mean anomaly at epoch: 355.9281°
orbit number at epoch: 59340

The dashed part of the orbit path shows where the satellite is in the earth's shadow,  

DLR